Location: Rother District
(50.9500°N, 0.6500°E)
Time: 18:03:33
(UTC+00:00)

Daily predictions for brighter satellites

Satellite Brightness Start Highest point End
(mag) Time Altitude Azimuth Time Altitude Azimuth Time Altitude Azimuth
CZ-2C R/B 3.7 20:48:02 10° N 20:53:19 51° WNW 20:58:26 10° SW
Cosmos-2242 3.1 20:49:20 10° N 20:53:41 70° E 20:58:01 10° SSE
Cosmos 1818 3.7 20:49:26 10° SSW 20:54:44 58° ESE 21:00:05 10° NE
Cosmos 2221 4.2 20:54:55 10° NNE 20:58:22 22° ENE 21:01:46 10° ESE
SL-16 R/B 2.9 20:53:01 10° SW 20:58:37 61° NW 21:04:17 10° NNE
ERS-1 Rocket 3.2 20:57:36 10° SSE 21:02:33 60° ENE 21:07:31 10° N
GEOS 3 Rocket 3.9 20:58:22 10° NE 21:03:37 49° SE 21:08:50 10° SSW
Cosmos 2278 Rocket 3.2 21:01:49 10° NNW 21:07:08 38° NE 21:12:24 10° ESE
USA 215 3.8 21:01:14 10° ENE 21:07:12 36° SE 21:13:07 10° SSW
ATLAS 5 CENTAUR R/B 1.6 21:07:12 10° SSW 21:11:19 61° SE 21:15:59 10° NE
Cosmos 1844 Rocket 3.1 21:06:38 10° NW 21:12:08 60° WSW 21:17:35 10° SSE
USA 245 3.7 21:09:26 10° S 21:12:45 60° W 21:17:00 10° NNW
Meteor 1-11 4.5 21:07:20 10° S 21:12:46 52° E 21:18:17 10° NNE
Gblst 52 Del rocket 4.3 21:07:25 10° WNW 21:13:02 79° SSW 21:19:15 10° ESE
Cosmos 1400 Rocket 3.0 21:09:02 10° NNW 21:13:02 73° W 21:16:57 10° S
Cosmos 1758 Rocket 3.7 21:11:15 10° SSW 21:15:46 82° WNW 21:20:17 10° N
Lacrosse 5 rocket 3.0 21:15:13 10° W 21:19:12 37° N 21:22:59 10° ENE
SPOT 5 3.0 21:14:15 10° SSE 21:19:15 71° ENE 21:24:01 10° N
BREEZE-M DEB (TANK) 4.3 21:15:51 10° W 21:19:54 79° S 21:35:34 10° ESE
Spot 2 Rocket 4.1 21:18:10 10° S 21:23:10 55° W 21:28:12 10° NNW
USA 81 4.2 21:20:36 10° SSE 21:25:45 59° E 21:30:58 10° NNE
BREEZE M DEB (TANK) 3.2 21:24:06 10° W 21:26:22 23° SSW 21:27:38 14° SSE
Landsat 7 4.5 21:23:02 10° S 21:27:40 52° W 21:32:21 10° NNW
Cosmos 2181 Rocket 4.1 21:21:27 10° N 21:27:51 79° E 21:34:07 10° SSE
TSX-5 4.4 21:30:50 10° NNW 21:34:04 41° NE 21:37:35 11° ESE
SPOT 1/Viking Rocket 4.1 21:32:44 10° S 21:37:46 54° W 21:42:52 10° NNW
Cosmos 1953 Rocket 3.6 21:34:32 10° S 21:38:52 85° W 21:43:13 10° N
USA 267 3.3 21:34:53 10° ESE 21:41:29 87° NNE 21:48:05 10° WNW
CZ-4C R/B 4.5 21:36:45 10° NW 21:42:14 30° NNE 21:48:37 10° ENE
SAR-Lupe-2 3.9 21:39:26 10° N 21:43:01 70° WNW 21:46:35 10° SSW
Cosmos 2084 3.6 21:40:00 10° NW 21:44:28 72° SW 21:48:05 15° SE
Cosmos 1842 Rocket 3.6 21:41:07 10° N 21:45:29 65° ENE 21:49:02 15° SSE
Cosmos 2322 Rocket 3.9 21:40:56 10° WSW 21:46:07 37° NW 21:51:20 10° NNE
MTI 4.4 21:48:30 10° NNE 21:51:23 35° E 21:53:10 18° SSE
ATLAS CENTAUR R/B 1.4 21:52:19 10° NW 21:55:55 52° SW 21:58:26 18° SSE
Cosmos 1825 4.2 21:58:09 12° ESE 21:59:51 16° E 22:02:10 10° NE
Cosmos 1980 4.4 21:56:55 14° SSE 22:01:01 34° ESE 22:06:03 10° NE
ALOS 2 4.5 21:58:24 10° ESE 22:01:36 20° ENE 22:04:49 10° NNE
COSMOS 2428 2.7 22:00:05 10° SSW 22:05:44 77° ESE 22:11:27 10° NNE
Cosmos 1869 3.3 22:02:28 10° N 22:06:28 87° E 22:09:22 18° S
Cosmos 2322 4.1 22:03:59 10° SW 22:09:41 68° WNW 22:15:25 10° NNE
NOSS 3-4 (A) 3.9 22:06:03 10° NW 22:12:54 79° NE 22:19:46 13° SE
NOSS 3-4 (C) 3.9 22:06:09 10° NW 22:13:01 79° NE 22:19:54 13° SE
NOSS 0 Rocket 4.2 22:07:31 11° S 22:13:14 50° ESE 22:19:10 10° NE
Terra 2.4 22:10:34 13° S 22:14:38 52° W 22:19:19 10° NNW
Cosmos 2237 Rocket 2.7 22:14:58 16° S 22:19:12 43° ESE 22:24:35 10° NE
Genesis I 4.4 22:18:36 21° SE 22:19:37 23° ESE 22:22:44 10° ENE
BREEZE-M DEB 4.5 22:15:54 10° W 22:19:54 54° SSW 22:34:40 10° SE
Cosmos 2219 Rocket 2.3 22:15:58 10° SW 22:21:34 78° WNW 22:27:13 10° NNE
Cosmos 2344 4.1 22:16:02 14° S 22:21:42 36° ESE 22:28:44 10° NE
Atlas Centaur 2 4.4 22:20:00 10° SSW 22:21:21 11° S 22:21:21 11° S
Cosmos 1538 Rocket 4.3 22:17:29 10° SSW 22:22:50 73° WNW 22:28:11 10° NNE
Cosmos 2360 Rocket 3.9 22:18:49 10° WSW 22:23:59 36° NW 22:29:12 10° NNE
NOSS 3-3 (A) 3.9 22:18:11 10° SW 22:24:07 84° SE 22:30:55 10° NE
NOSS 3-3 (C) 3.9 22:18:17 10° SW 22:24:13 84° SE 22:31:02 10° NE
Cosmos 1315 Rocket 4.2 22:22:52 10° NNW 22:26:33 33° W 22:29:55 12° SSW
Thor Agena Rocket 3.9 22:25:09 10° NNE 22:30:06 47° E 22:33:18 21° SSE
Cosmos 2333 Rocket 2.7 22:26:05 10° SW 22:31:45 64° NW 22:37:28 10° NNE
Cosmos 2184 Rocket 4.1 22:27:10 12° SSW 22:33:02 82° W 22:39:24 10° N
Cosmos 2221 3.2 22:31:58 10° NNW 22:36:12 48° W 22:39:20 17° SSW
BREEZE-M DEB (TANK) 1.6 22:35:36 10° W 22:40:06 60° SSW 22:41:22 26° ESE
Iridium 2 3.7 22:36:35 10° N 22:40:26 71° E 22:42:26 26° SSE
Cosmos 1371 Rocket 4.0 22:35:25 10° NNW 22:40:42 80° ENE 22:44:15 21° SSE
ATLAS 2AS CENTAUR R/B 2.9 22:33:12 10° NW 22:40:54 84° SW 22:46:24 18° SE
EO 1 Del DPAF 3.5 22:39:33 10° NNE 22:43:14 50° E 22:45:00 27° SSE
Cosmos 1892 2.7 22:41:59 20° SSW 22:44:28 77° W 22:48:18 10° N
Aureole 2 Rocket 2.8 22:45:09 10° N 22:47:50 40° ENE 22:48:59 26° ESE
Okean 3 Rocket 4.4 22:47:02 23° SE 22:49:13 37° E 22:53:18 10° NNE
Cosmos 1606 3.5 22:46:38 10° N 22:50:20 41° ENE 22:52:19 23° SE
USA 215 3.3 22:44:06 10° ENE 22:50:42 90° NNE 22:57:17 10° WSW
Cosmos 2278 Rocket 2.8 22:45:56 10° NW 22:51:22 47° WSW 22:54:59 20° S
Cosmos 2112 Rocket 4.1 22:48:24 19° S 22:52:12 66° ESE 22:57:33 10° NNE
Cosmos 2297 4.0 22:47:11 10° NNW 22:52:55 64° NE 22:57:11 18° SE
ATLAS 5 CENTAUR R/B 3.6 22:52:17 10° W 22:56:17 33° NNW 23:00:49 10° NE
Cosmos 158 Rocket 3.8 22:52:56 19° SSW 22:56:23 75° ESE 23:01:18 10° NNE
Cosmos 1420 Rocket 4.5 22:51:39 10° NNW 22:56:51 56° ENE 23:00:36 19° SE
Lacrosse 5 rocket 2.7 22:55:09 10° WNW 22:59:02 39° NNE 23:02:43 10° E
Cosmos 1943 Rocket 3.2 22:54:04 10° NNW 22:59:26 41° NE 23:04:40 10° ESE
Spot 4 3.9 22:59:07 24° S 23:02:00 70° WSW 23:06:47 10° NNW
SL-16 R/B 2.9 23:00:47 23° SSE 23:03:35 37° ESE 23:08:46 10° NE
Cosmos 2058 3.6 23:01:11 16° SSW 23:04:16 50° WNW 23:08:19 10° N
Cosmos 2056 Rocket 3.6 22:59:13 10° NNW 23:04:39 79° WSW 23:07:58 24° SSE
Cosmos 1408 2.7 23:03:24 26° SSW 23:05:18 70° WNW 23:08:53 10° N
Nadezhda 3 Rocket 4.4 23:03:08 10° NNW 23:09:22 57° W 23:13:54 19° SSW
Cosmos 2154 Rocket 4.3 23:07:49 15° SSW 23:12:57 65° WNW 23:19:11 10° N
Cosmos 2341 Rocket 4.0 23:11:46 22° S 23:15:59 81° E 23:22:14 10° NNE
Cosmos 1076 Rocket 4.4 23:12:54 16° SW 23:16:06 45° WNW 23:20:14 10° N
Cosmos 332 Rocket 4.3 23:13:32 10° NNW 23:18:16 53° ENE 23:21:28 20° SE
Cosmos 1680 Rocket 3.8 23:15:57 14° SW 23:20:37 69° WNW 23:25:58 10° NNE
Meteor 2-3 Rocket 4.3 23:21:02 23° SSE 23:24:10 46° E 23:29:36 10° NNE
USA 267 3.9 23:21:24 23° S 23:24:56 39° SW 23:31:01 10° WNW
Cosmos 2151 3.0 23:23:52 26° SSW 23:26:14 76° W 23:30:32 10° N
IRIDIUM 104 4.4 23:23:26 26° SSE 23:26:24 69° E 23:31:36 10° N
Helios 1A 3.4 23:24:53 25° SE 23:27:06 56° ENE 23:31:12 10° N
Cosmos 405 4.4 23:24:14 10° N 23:27:27 31° ENE 23:29:08 20° ESE
Meteor 1-26 Rocket 4.5 23:25:30 10° N 23:31:33 71° ENE 23:35:20 23° SSE
Cosmos 1452 Rocket 3.7 23:26:25 10° NNW 23:31:43 71° ENE 23:35:06 22° SE
CZ-4C R/B 3.5 23:25:33 10° NW 23:32:12 55° NE 23:40:01 10° ESE
BREEZE-M DEB (TANK) 4.5 23:31:28 10° WSW 23:32:32 11° WSW 23:32:45 11° WSW
COSMOS 2455 3.0 23:27:22 10° NW 23:33:27 73° NE 23:38:24 16° SE
Cosmos 1825 2.8 23:32:56 23° SW 23:34:57 49° WNW 23:38:40 10° N
SL-8 Rocket 3.9 23:30:59 24° S 23:34:58 84° E 23:41:09 10° N
IRIDIUM 114 4.3 23:32:35 27° S 23:35:33 81° E 23:40:48 10° N
Cosmos 1340 2.9 23:34:23 34° SSE 23:35:43 53° E 23:39:24 10° NNE
Cosmos 1933 3.3 23:32:26 10° NNW 23:36:29 84° W 23:38:13 33° S
ALOS 2 2.8 23:35:27 29° S 23:37:33 59° W 23:41:55 10° NNW
Cosmos 1408 Rocket 3.8 23:35:56 30° SSE 23:37:55 58° E 23:42:16 10° NNE
Cosmos 1151 Rocket 3.0 23:33:40 10° NNW 23:38:02 77° W 23:40:03 31° S
Meteor 2-12 Rocket 4.4 23:37:27 25° S 23:41:15 78° E 23:47:25 10° NNE
APEX 2.2 23:41:09 10° NNW 23:43:53 86° ENE 23:44:22 56° SE
Cosmos 1727 Rocket 4.1 23:37:46 10° N 23:44:01 75° ENE 23:48:04 23° SSE
Cosmos 2369 Rocket 2.7 23:38:34 10° NNW 23:44:07 57° NE 23:48:50 14° SE
IRIDIUM 103 4.3 23:41:42 26° S 23:44:41 86° W 23:49:57 10° N
Cosmos 1980 4.5 23:39:26 10° SW 23:44:55 50° NW 23:50:27 10° NNE
Cosmos 44 3.0 23:43:38 29° SSW 23:45:45 66° SE 23:50:11 10° NE
GP-B 3.3 23:42:09 10° N 23:46:34 66° W 23:48:50 28° SSW
Cosmos 1500 Rocket 4.5 23:44:49 24° SE 23:46:47 37° E 23:50:51 10° NNE
Cosmos 371 Rocket 3.3 23:43:08 10° NNW 23:47:59 69° WSW 23:50:25 29° S
SL-4 R/B 1.3 23:48:59 44° NW 23:48:59 44° NW 23:50:38 10° NNW
Helios 1B rocket 3.8 23:50:13 10° NE 23:53:45 27° E 23:55:23 21° SE
CREW DRAGON DEMO-1 DEB 2.7 23:54:49 47° SW 23:55:27 62° SSE 23:58:29 10° E
